SQ7PKP-15 Weather Reports


time (UTC)temp
C
wind
direction
speed
KPH
gust
KPH
rain 1hr
cm
rain 24hr
cm
rain mn
cm
humidity
%
barometer
mb
20260905183737 12 0.0 0.0 0.00 0.00 0.00 10 1017.4
20260905182737 13 0.0 0.0 0.00 0.00 0.00 10 1017.6
20260905181737 13 0.0 0.0 0.00 0.00 0.00 10 1017.0
20260905180737 13 0.0 0.0 0.00 0.00 0.00 10 1017.1
20260905175737 13 0.0 0.0 0.00 0.00 0.00 96 1016.9
20260905174737 13 0.0 0.0 0.00 0.00 0.00 94 1016.4
20260905173737 13 0.0 0.0 0.00 0.00 0.00 93 1016.7
20260905172737 13 0.0 0.0 0.00 0.00 0.00 91 1017.4
20260905171737 14 0.0 0.0 0.00 0.00 0.00 84 1018.3
20260905170738 15 0.0 0.0 0.00 0.00 0.00 76 1020.3
20260905165737 17 0.0 0.0 0.00 0.00 0.00 58 1016.6
20260905164737 18 0.0 0.0 0.00 0.00 0.00 59 1016.5
20260905163737 18 0.0 0.0 0.00 0.00 0.00 53 1015.8
20260905162737 19 0.0 0.0 0.00 0.00 0.00 51 1015.8
20260905161737 19 0.0 0.0 0.00 0.00 0.00 51 1015.4
20260905160737 20 0.0 0.0 0.00 0.00 0.00 50 1015.8
20260905155737 20 0.0 0.0 0.00 0.00 0.00 48 1015.4
20260905154737 20 0.0 0.0 0.00 0.00 0.00 47 1015.3
20260905153738 21 0.0 0.0 0.00 0.00 0.00 44 1014.4
20260905152737 21 0.0 0.0 0.00 0.00 0.00 44 1014.6
20260905151737 21 0.0 0.0 0.00 0.00 0.00 43 1014.5
20260905150738 21 0.0 0.0 0.00 0.00 0.00 43 1014.8
20260905145738 21 0.0 0.0 0.00 0.00 0.00 43 1014.2
20260905144737 21 0.0 0.0 0.00 0.00 0.00 46 1014.8
20260905143740 21 0.0 0.0 0.00 0.00 0.00 46 1014.5
20260905142737 21 0.0 0.0 0.00 0.00 0.00 44 1014.3
20260905141737 21 0.0 0.0 0.00 0.00 0.00 45 1013.4
20260905140737 21 0.0 0.0 0.00 0.00 0.00 48 1014.7
20260905135737 21 0.0 0.0 0.00 0.00 0.00 46 1014.2
20260905134737 21 0.0 0.0 0.00 0.00 0.00 49 1014.4
20260905133737 21 0.0 0.0 0.00 0.00 0.00 49 1014.4
20260905132738 20 0.0 0.0 0.00 0.00 0.00 49 1014.1
20260905131737 20 0.0 0.0 0.00 0.00 0.00 50 1014.4
20260905130738 20 0.0 0.0 0.00 0.00 0.00 51 1014.1
20260905125738 20 0.0 0.0 0.00 0.00 0.00 53 1013.9
20260905124737 19 0.0 0.0 0.00 0.00 0.00 55 1014.1
20260905123737 18 0.0 0.0 0.00 0.00 0.00 55 1016.1
20260905122738 19 0.0 0.0 0.00 0.00 0.00 52 1016.4
20260905121737 20 0.0 0.0 0.00 0.00 0.00 49 1014.3
20260905120737 20 0.0 0.0 0.00 0.00 0.00 50 1014.5
20260905115737 20 0.0 0.0 0.00 0.00 0.00 52 1014.6
20260905114738 20 0.0 0.0 0.00 0.00 0.00 51 1014.5
20260905113737 20 0.0 0.0 0.00 0.00 0.00 51 1014.3
20260905112737 19 0.0 0.0 0.00 0.00 0.00 52 1014.8
20260905111737 19 0.0 0.0 0.00 0.00 0.00 54 1015.4
20260905110737 19 0.0 0.0 0.00 0.00 0.00 51 1015.0
20260905105737 19 0.0 0.0 0.00 0.00 0.00 51 1015.1
20260905104737 20 0.0 0.0 0.00 0.00 0.00 51 1014.6
20260905103737 19 0.0 0.0 0.00 0.00 0.00 55 1014.3
20260905102737 19 0.0 0.0 0.00 0.00 0.00 57 1014.6
20260905101737 19 0.0 0.0 0.00 0.00 0.00 56 1015.0
20260905100737 19 0.0 0.0 0.00 0.00 0.00 59 1014.1
20260905095737 18 0.0 0.0 0.00 0.00 0.00 60 1015.0
20260905094737 18 0.0 0.0 0.00 0.00 0.00 61 1013.8
20260905093737 18 0.0 0.0 0.00 0.00 0.00 63 1015.1
20260905092737 18 0.0 0.0 0.00 0.00 0.00 60 1014.3
20260905091737 18 0.0 0.0 0.00 0.00 0.00 62 1014.2
20260905090737 18 0.0 0.0 0.00 0.00 0.00 65 1013.9
20260905085737 18 0.0 0.0 0.00 0.00 0.00 65 1013.8
20260905084738 17 0.0 0.0 0.00 0.00 0.00 70 1014.2
20260905083737 17 0.0 0.0 0.00 0.00 0.00 73 1014.2
20260905082737 17 0.0 0.0 0.00 0.00 0.00 72 1013.5
20260905081737 17 0.0 0.0 0.00 0.00 0.00 74 1012.8
20260905080737 16 0.0 0.0 0.00 0.00 0.00 76 1014.4
20260905075737 16 0.0 0.0 0.00 0.00 0.00 79 1014.3
20260905074737 16 0.0 0.0 0.00 0.00 0.00 79 1014.3
20260905073737 17 0.0 0.0 0.00 0.00 0.00 83 1013.0
20260905072737 16 0.0 0.0 0.00 0.00 0.00 85 1013.8
20260905071738 16 0.0 0.0 0.00 0.00 0.00 84 1013.7
20260905070737 16 0.0 0.0 0.00 0.00 0.00 86 1013.2
20260905065737 16 0.0 0.0 0.00 0.00 0.00 87 1013.2
20260905064737 16 0.0 0.0 0.00 0.00 0.00 90 1013.5
20260905063737 16 0.0 0.0 0.00 0.00 0.00 91 1013.1
20260905062737 16 0.0 0.0 0.00 0.00 0.00 95 1012.7
20260905061737 15 0.0 0.0 0.00 0.00 0.00 94 1013.0
20260905060737 15 0.0 0.0 0.00 0.00 0.00 96 1012.9
20260905055737 15 0.0 0.0 0.00 0.00 0.00 98 1012.7
20260905054737 15 0.0 0.0 0.00 0.00 0.00 10 1012.6
20260905053737 15 0.0 0.0 0.00 0.00 0.00 10 1012.7
20260905052737 15 0.0 0.0 0.00 0.00 0.00 10 1012.7
20260905051737 15 0.0 0.0 0.00 0.00 0.00 10 1012.7
20260905050737 15 0.0 0.0 0.00 0.00 0.00 10 1012.3
20260905045737 15 0.0 0.0 0.00 0.00 0.00 10 1012.2
20260905044737 15 0.0 0.0 0.00 0.00 0.00 10 1012.1
20260905043737 15 0.0 0.0 0.00 0.00 0.00 10 1012.0
20260905042737 15 0.0 0.0 0.00 0.00 0.00 10 1012.2
20260905041737 15 0.0 0.0 0.00 0.00 0.00 10 1011.9
20260905040737 15 0.0 0.0 0.00 0.00 0.00 10 1011.9
20260905035737 15 0.0 0.0 0.00 0.00 0.00 10 1011.7
20260905034737 15 0.0 0.0 0.00 0.00 0.00 10 1011.5
20260905033737 15 0.0 0.0 0.00 0.00 0.00 10 1011.6
20260905032737 15 0.0 0.0 0.00 0.00 0.00 10 1011.2
20260905031737 15 0.0 0.0 0.00 0.00 0.00 10 1011.3
20260905030737 15 0.0 0.0 0.00 0.00 0.00 10 1011.0
20260905025737 15 0.0 0.0 0.00 0.00 0.00 10 1010.7
20260905024737 15 0.0 0.0 0.00 0.00 0.00 10 1010.7
20260905023737 15 0.0 0.0 0.00 0.00 0.00 10 1010.6
20260905022737 15 0.0 0.0 0.00 0.00 0.00 10 1010.5
20260905021737 15 0.0 0.0 0.00 0.00 0.00 10 1010.4
20260905020737 15 0.0 0.0 0.00 0.00 0.00 10 1010.4
20260905015737 15 0.0 0.0 0.00 0.00 0.00 10 1010.7
20260905014737 15 0.0 0.0 0.00 0.00 0.00 10 1010.3
20260905013737 15 0.0 0.0 0.00 0.00 0.00 10 1010.1
20260905012737 15 0.0 0.0 0.00 0.00 0.00 10 1010.4
20260905011737 15 0.0 0.0 0.00 0.00 0.00 10 1010.2
20260905010737 15 0.0 0.0 0.00 0.00 0.00 10 1010.0
20260905005737 15 0.0 0.0 0.00 0.00 0.00 10 1010.2
20260905004737 15 0.0 0.0 0.00 0.00 0.00 10 1009.7
20260905003737 15 0.0 0.0 0.00 0.00 0.00 10 1009.5
20260905002737 15 0.0 0.0 0.00 0.00 0.00 10 1010.0
20260905001737 15 0.0 0.0 0.00 0.00 0.00 10 1010.0
20260905000737 15 0.0 0.0 0.00 0.00 0.00 10 1009.6
20260904235737 15 0.0 0.0 0.00 0.00 0.00 10 1009.4
20260904234737 15 0.0 0.0 0.00 0.00 0.00 10 1009.0
20260904233737 15 0.0 0.0 0.00 0.00 0.00 10 1009.3
20260904232737 15 0.0 0.0 0.00 0.00 0.00 10 1009.4
20260904231737 15 0.0 0.0 0.00 0.00 0.00 10 1009.2
20260904230737 16 0.0 0.0 0.00 0.00 0.00 10 1009.1
20260904225737 16 0.0 0.0 0.00 0.00 0.00 10 1008.8
20260904224737 16 0.0 0.0 0.00 0.00 0.00 10 1008.6
20260904223737 16 0.0 0.0 0.00 0.00 0.00 10 1008.1
20260904222737 17 0.0 0.0 0.00 0.00 0.00 10 1008.1
20260904221737 17 0.0 0.0 0.00 0.00 0.00 10 1008.0
20260904220737 17 0.0 0.0 0.00 0.00 0.00 10 1007.1
20260904215737 17 0.0 0.0 0.00 0.00 0.00 10 1007.3
20260904214737 17 0.0 0.0 0.00 0.00 0.00 10 1007.4
20260904213737 17 0.0 0.0 0.00 0.00 0.00 10 1007.3
20260904212737 17 0.0 0.0 0.00 0.00 0.00 10 1007.4
20260904211737 17 0.0 0.0 0.00 0.00 0.00 10 1007.4
20260904210737 17 0.0 0.0 0.00 0.00 0.00 10 1007.0
20260904205737 17 0.0 0.0 0.00 0.00 0.00 10 1007.6
20260904204737 17 0.0 0.0 0.00 0.00 0.00 10 1007.7
20260904203737 17 0.0 0.0 0.00 0.00 0.00 10 1007.5
20260904202737 17 0.0 0.0 0.00 0.00 0.00 10 1007.2
20260904201737 17 0.0 0.0 0.00 0.00 0.00 10 1007.4
20260904200737 17 0.0 0.0 0.00 0.00 0.00 10 1007.6
20260904195737 17 0.0 0.0 0.00 0.00 0.00 10 1008.0
20260904194737 18 0.0 0.0 0.00 0.00 0.00 10 1008.2
20260904193737 18 0.0 0.0 0.00 0.00 0.00 10 1009.0
20260904192737 19 0.0 0.0 0.00 0.00 0.00 10 1011.0
20260904191737 21 0.0 0.0 0.00 0.00 0.00 82 1008.7
20260904190737 23 0.0 0.0 0.00 0.00 0.00 66 1005.0
20260904185737 23 0.0 0.0 0.00 0.00 0.00 66 1004.6
20260904184737 22 0.0 0.0 0.00 0.00 0.00 66 1004.7